TimeMDT,TemperatureF,Dew PointF,Humidity,Sea Level PressureIn,VisibilityMPH,Wind Direction,Wind SpeedMPH,Gust SpeedMPH,PrecipitationIn,Events,Conditions,WindDirDegrees,DateUTC
12:15 AM,60.8,3.2,10,29.89,10.0,West,19.6,28.8,N/A,,Clear,270,2012-10-09 06:15:00
12:55 AM,59.0,5.0,12,29.89,10.0,West,5.8,-,N/A,,Clear,260,2012-10-09 06:55:00
1:14 AM,55.4,6.8,14,29.90,10.0,SSW,3.5,-,N/A,,Clear,210,2012-10-09 07:14:00
2:15 AM,55.4,8.6,15,29.91,10.0,NNW,4.6,-,N/A,,Clear,330,2012-10-09 08:15:00
2:35 AM,57.2,5.0,12,29.92,10.0,NNW,4.6,-,N/A,,Clear,340,2012-10-09 08:35:00
2:55 AM,57.2,5.0,12,29.92,10.0,NNW,4.6,-,N/A,,Clear,330,2012-10-09 08:55:00
3:15 AM,48.2,14.0,25,29.93,10.0,NE,11.5,-,N/A,,Clear,40,2012-10-09 09:15:00
3:35 AM,42.8,21.2,42,29.95,10.0,North,3.5,-,N/A,,Clear,360,2012-10-09 09:35:00
3:55 AM,41.0,23.0,49,29.95,10.0,NNE,4.6,-,N/A,,Clear,30,2012-10-09 09:55:00
4:15 AM,41.0,26.6,57,29.98,10.0,West,5.8,-,N/A,,Clear,280,2012-10-09 10:15:00
4:34 AM,39.2,26.6,61,29.98,10.0,WNW,3.5,-,N/A,,Clear,300,2012-10-09 10:34:00
4:49 AM,41.0,26.6,57,29.99,10.0,North,4.6,-,N/A,,Clear,360,2012-10-09 10:49:00
5:05 AM,39.2,28.4,65,29.99,10.0,NNW,5.8,-,N/A,,Clear,330,2012-10-09 11:05:00
5:23 AM,39.2,28.4,65,30.00,10.0,NNW,8.1,-,N/A,,Clear,340,2012-10-09 11:23:00
5:47 AM,39.2,28.4,65,30.01,20.0,North,6.9,-,N/A,,Scattered Clouds,10,2012-10-09 11:47:00
5:53 AM,39.2,30.2,70,30.02,10.0,North,8.1,-,N/A,,Clear,360,2012-10-09 11:53:00
6:47 AM,37.4,30.2,75,30.03,20.0,Variable,4.6,-,N/A,,Scattered Clouds,0,2012-10-09 12:47:00
7:47 AM,39.2,32.0,75,30.06,15.0,NNE,5.8,-,N/A,,Mostly Cloudy,20,2012-10-09 13:47:00
9:45 AM,42.8,32.0,66,30.10,15.0,NNE,6.9,-,N/A,,Mostly Cloudy,20,2012-10-09 15:45:00
10:45 AM,42.8,32.0,66,30.11,15.0,NNE,5.8,-,N/A,,Overcast,30,2012-10-09 16:45:00
11:50 AM,44.6,32.0,61,30.10,20.0,Variable,4.6,-,N/A,,Overcast,0,2012-10-09 17:50:00
12:47 PM,44.6,32.0,61,30.10,20.0,Variable,6.9,-,N/A,,Overcast,0,2012-10-09 18:47:00
1:52 PM,46.4,32.0,57,30.10,12.0,NE,4.6,-,N/A,,Overcast,40,2012-10-09 19:52:00
2:45 PM,46.4,32.0,57,30.11,12.0,Variable,6.9,-,N/A,,Overcast,0,2012-10-09 20:45:00
3:50 PM,46.4,32.0,57,30.13,15.0,NE,4.6,-,N/A,,Overcast,50,2012-10-09 21:50:00
4:46 PM,46.4,32.0,57,30.14,15.0,NE,5.8,-,N/A,,Overcast,50,2012-10-09 22:46:00
5:47 PM,46.4,32.0,57,30.16,15.0,East,4.6,-,N/A,,Overcast,80,2012-10-09 23:47:00
6:47 PM,44.6,33.8,66,30.18,15.0,East,3.5,-,N/A,,Overcast,90,2012-10-10 00:47:00
7:50 PM,44.6,33.8,66,30.19,15.0,East,3.5,-,N/A,,Overcast,90,2012-10-10 01:50:00
8:53 PM,44.6,33.8,66,30.21,15.0,Calm,Calm,-,N/A,,Overcast,0,2012-10-10 02:53:00
9:53 PM,44.6,33.8,66,30.22,15.0,Calm,Calm,-,N/A,,Overcast,0,2012-10-10 03:53:00
11:10 PM,44.6,32.0,61,30.20,10.0,Calm,Calm,-,N/A,,Overcast,0,2012-10-10 05:10:00
11:31 PM,42.8,32.0,66,30.19,10.0,SSE,3.5,-,N/A,,Mostly Cloudy,150,2012-10-10 05:31:00
11:55 PM,42.8,32.0,66,30.19,10.0,Calm,Calm,-,N/A,,Mostly Cloudy,0,2012-10-10 05:55:00